TimeMST,TemperatureF,Dew PointF,Humidity,Sea Level PressureIn,VisibilityMPH,Wind Direction,Wind SpeedMPH,Gust SpeedMPH,PrecipitationIn,Events,Conditions,WindDirDegrees,DateUTC
12:53 AM,30.0,23.0,75,30.00,10.0,SE,5.8,-,N/A,,Clear,130,2012-11-30 07:53:00
1:53 AM,34.0,21.9,61,29.98,10.0,SE,3.5,-,N/A,,Clear,140,2012-11-30 08:53:00
2:53 AM,30.9,23.0,72,29.99,10.0,Variable,4.6,-,N/A,,Clear,0,2012-11-30 09:53:00
3:53 AM,28.0,21.9,78,29.98,10.0,ENE,9.2,-,N/A,,Clear,70,2012-11-30 10:53:00
4:53 AM,30.0,23.0,75,30.00,10.0,ESE,8.1,-,N/A,,Clear,110,2012-11-30 11:53:00
5:53 AM,30.0,23.0,75,30.00,10.0,ESE,5.8,-,N/A,,Partly Cloudy,120,2012-11-30 12:53:00
6:53 AM,36.0,23.0,59,30.01,10.0,SSE,9.2,-,N/A,,Clear,150,2012-11-30 13:53:00
7:53 AM,37.0,24.1,59,30.03,10.0,East,5.8,-,N/A,,Clear,100,2012-11-30 14:53:00
8:53 AM,44.1,25.0,47,30.00,10.0,SE,8.1,-,N/A,,Clear,140,2012-11-30 15:53:00
9:53 AM,53.1,27.0,37,29.98,10.0,SE,9.2,-,N/A,,Clear,130,2012-11-30 16:53:00
10:53 AM,61.0,24.1,24,29.90,10.0,South,15.0,-,N/A,,Clear,170,2012-11-30 17:53:00
11:53 AM,63.0,23.0,22,29.86,10.0,South,16.1,-,N/A,,Clear,190,2012-11-30 18:53:00
12:53 PM,66.0,25.0,21,29.80,10.0,SSW,9.2,-,N/A,,Clear,210,2012-11-30 19:53:00
1:33 PM,64.4,26.6,24,29.82,10.0,WSW,13.8,23.0,N/A,,Clear,250,2012-11-30 20:33:00
1:53 PM,64.0,27.0,25,29.78,10.0,SW,11.5,-,N/A,,Clear,230,2012-11-30 20:53:00
2:53 PM,60.1,27.0,28,29.78,10.0,North,4.6,-,N/A,,Clear,350,2012-11-30 21:53:00
3:53 PM,55.9,27.0,33,29.79,10.0,Calm,Calm,-,N/A,,Clear,0,2012-11-30 22:53:00
5:53 PM,55.0,21.9,28,29.80,10.0,SSW,4.6,-,N/A,,Clear,210,2012-12-01 00:53:00
6:53 PM,48.0,23.0,37,29.80,10.0,SE,6.9,-,N/A,,Clear,140,2012-12-01 01:53:00
7:53 PM,48.0,24.1,39,29.78,10.0,SW,3.5,-,N/A,,Clear,230,2012-12-01 02:53:00
8:53 PM,46.0,24.1,42,29.78,10.0,West,5.8,-,N/A,,Clear,260,2012-12-01 03:53:00
9:53 PM,48.0,26.1,42,29.75,10.0,WNW,8.1,-,N/A,,Clear,290,2012-12-01 04:53:00
11:53 PM,52.0,28.0,40,29.71,10.0,WNW,5.8,-,N/A,,Clear,300,2012-12-01 06:53:00